Location: Karcze
(52.0945°N, 22.4786°E)
Time: 19:45:47
(UTC+00:00)

BlueWalker 3 - Visible Passes

Search period start: 27 November 2022 00:00
Search period end: 07 December 2022 00:00
Orbit: 500 x 519 km, 53.2° (Epoch: 27 November)

Date Brightness Start Highest point End Pass type
(mag) Time Alt. Az. Time Alt. Az. Time Alt. Az.
27 Nov 2.5 15:54:46 10° SW 15:58:33 47° SSE 16:00:34 24° E visible
27 Nov 3.7 17:33:13 10° W 17:35:24 31° W 17:35:24 31° W visible
28 Nov 2.5 15:36:24 10° SW 15:40:12 49° SSE 15:42:57 17° E visible
28 Nov 2.9 17:14:53 10° W 17:17:47 47° W 17:17:47 47° W visible
29 Nov 2.4 15:18:01 10° SW 15:21:50 51° SSE 15:25:19 12° ENE visible
29 Nov 2.1 16:56:32 10° W 17:00:09 71° NW 17:00:09 71° NW visible
30 Nov 2.4 14:59:38 10° SW 15:03:28 54° SSE 15:07:17 10° ENE visible
30 Nov 1.8 16:38:11 10° W 16:42:06 76° N 16:42:30 68° NE visible
30 Nov 5.2 18:16:59 10° WNW 18:17:19 12° WNW 18:17:19 12° WNW visible
01 Dec 1.9 16:19:49 10° W 16:23:45 76° N 16:24:50 45° ENE visible
01 Dec 4.7 17:58:37 10° WNW 17:59:39 18° WNW 17:59:39 18° WNW visible
02 Dec 1.9 16:01:27 10° W 16:05:23 75° N 16:07:11 30° ENE visible
02 Dec 4.1 17:40:15 10° WNW 17:42:00 25° WNW 17:42:00 25° WNW visible
03 Dec 2.0 15:43:05 10° W 15:47:01 75° N 15:49:33 21° E visible
03 Dec 3.3 17:21:53 10° WNW 17:24:22 38° W 17:24:22 38° W visible
04 Dec 2.0 15:24:42 10° W 15:28:38 74° N 15:31:56 14° E visible
04 Dec 2.4 17:03:29 10° WNW 17:06:46 60° W 17:06:46 60° W visible
05 Dec 2.0 15:06:19 10° W 15:10:15 74° N 15:14:10 10° E visible
05 Dec 1.9 16:45:06 10° WNW 16:49:01 79° SSW 16:49:12 76° SSE visible
06 Dec 2.0 16:26:42 10° WNW 16:30:37 77° SSW 16:31:43 45° ESE visible
06 Dec 5.0 18:05:42 10° W 18:06:33 14° W 18:06:33 14° W visible
